Year,Month,Day,Hour,Minute,Value (Times are PST for temperature in C)
2019,02,16,00,00,-24.30
2019,02,16,00,01,-24.40
2019,02,16,00,02,-24.50
2019,02,16,00,03,-24.50
2019,02,16,00,04,-24.60
2019,02,16,00,05,-24.60
2019,02,16,00,06,-24.60
2019,02,16,00,07,-24.70
2019,02,16,00,08,-24.70
2019,02,16,00,09,-24.70
2019,02,16,00,10,-24.70
2019,02,16,00,11,-24.80
2019,02,16,00,12,-24.80
2019,02,16,00,13,-24.80
2019,02,16,00,14,-24.80
2019,02,16,00,15,-24.80
2019,02,16,00,16,-24.80
2019,02,16,00,17,-24.80
2019,02,16,00,18,-24.80
2019,02,16,00,19,-24.80
2019,02,16,00,20,-24.80
2019,02,16,00,21,-24.80
2019,02,16,00,22,-24.80
2019,02,16,00,23,-24.80
2019,02,16,00,24,-24.80
2019,02,16,00,25,-24.80
2019,02,16,00,26,-24.90
2019,02,16,00,27,-24.90
2019,02,16,00,28,-24.90
2019,02,16,00,29,-24.90
2019,02,16,00,30,-24.90
2019,02,16,00,31,-24.90
2019,02,16,00,32,-24.90
2019,02,16,00,34,-24.90
2019,02,16,00,35,-24.90
2019,02,16,00,36,-24.90
2019,02,16,01,14,-24.90
2019,02,16,01,15,-24.90
2019,02,16,01,16,-24.80
2019,02,16,01,17,-24.70
2019,02,16,01,18,-24.60
2019,02,16,01,19,-24.60
2019,02,16,01,20,-24.60
2019,02,16,01,21,-24.50
2019,02,16,01,22,-24.40
2019,02,16,01,23,-24.40
2019,02,16,01,24,-24.40
2019,02,16,01,25,-24.40
2019,02,16,01,26,-24.30
2019,02,16,01,27,-24.30
2019,02,16,01,28,-24.40
2019,02,16,01,29,-24.40
2019,02,16,01,30,-24.40
2019,02,16,01,31,-24.40
2019,02,16,01,32,-24.40
2019,02,16,01,33,-24.40
2019,02,16,01,34,-24.50
2019,02,16,01,35,-24.50
2019,02,16,01,36,-24.60
2019,02,16,01,37,-24.60
2019,02,16,01,38,-24.60
2019,02,16,01,39,-24.60
2019,02,16,01,40,-24.60
2019,02,16,01,41,-24.70
2019,02,16,01,42,-24.60
2019,02,16,01,43,-24.70
2019,02,16,01,44,-24.70
2019,02,16,01,45,-24.70
2019,02,16,01,46,-24.70
2019,02,16,01,47,-24.70
2019,02,16,01,48,-24.70
2019,02,16,01,49,-24.70
2019,02,16,01,50,-24.70
2019,02,16,01,51,-24.70
2019,02,16,01,52,-24.70
2019,02,16,01,53,-24.70
2019,02,16,01,54,-24.70
2019,02,16,01,55,-24.70
2019,02,16,01,56,-24.70
2019,02,16,01,57,-24.70
2019,02,16,01,58,-24.70
2019,02,16,01,59,-24.70
2019,02,16,02,00,-24.70
2019,02,16,02,01,-24.70
2019,02,16,02,02,-24.80
2019,02,16,02,03,-24.80
2019,02,16,02,04,-24.80
2019,02,16,02,05,-24.80
2019,02,16,02,06,-24.80
2019,02,16,02,07,-24.80
2019,02,16,02,08,-24.80
2019,02,16,02,09,-24.80
2019,02,16,11,40,-24.90
2019,02,16,11,41,-24.90
2019,02,16,11,42,-24.80
2019,02,16,11,43,-24.70
2019,02,16,11,44,-24.60
2019,02,16,11,45,-24.50
2019,02,16,11,46,-24.40
2019,02,16,11,47,-24.30
2019,02,16,11,48,-24.20
2019,02,16,11,49,-24.10
2019,02,16,11,50,-24.00
2019,02,16,11,51,-23.90
2019,02,16,11,52,-23.80
2019,02,16,11,53,-23.70
2019,02,16,11,54,-23.60
2019,02,16,11,55,-23.40
2019,02,16,11,56,-23.20
2019,02,16,11,57,-23.10
2019,02,16,11,58,-22.90
2019,02,16,11,59,-22.90
2019,02,16,12,00,-22.80
2019,02,16,12,01,-22.80
2019,02,16,12,02,-22.70
2019,02,16,12,03,-22.70
2019,02,16,12,04,-22.60
2019,02,16,12,05,-22.50
2019,02,16,12,06,-22.40
2019,02,16,12,07,-22.40
2019,02,16,12,08,-22.30
2019,02,16,12,09,-22.20
2019,02,16,12,10,-22.20
2019,02,16,12,11,-22.20
2019,02,16,12,12,-22.10
2019,02,16,12,13,-22.00
2019,02,16,12,14,-22.00
2019,02,16,12,15,-21.80
2019,02,16,12,16,-21.60
2019,02,16,12,17,-21.50
2019,02,16,12,18,-21.40
2019,02,16,12,19,-21.30
2019,02,16,12,20,-21.30
2019,02,16,12,21,-21.20
2019,02,16,12,22,-21.20
2019,02,16,12,23,-21.20
2019,02,16,12,24,-21.10
2019,02,16,12,25,-21.00
2019,02,16,12,26,-20.90
2019,02,16,12,27,-20.80
2019,02,16,12,28,-20.70
2019,02,16,12,29,-20.60
2019,02,16,12,30,-20.50
2019,02,16,12,31,-20.40
2019,02,16,12,32,-20.30
2019,02,16,12,33,-20.30
2019,02,16,12,34,-20.30
2019,02,16,12,35,-20.30
2019,02,16,12,36,-20.30
2019,02,16,12,37,-20.30
2019,02,16,12,38,-20.30
2019,02,16,12,39,-20.20
2019,02,16,12,40,-20.20
2019,02,16,12,41,-20.00
2019,02,16,12,42,-19.90
2019,02,16,12,43,-19.80
2019,02,16,12,44,-19.80
2019,02,16,12,45,-19.80
2019,02,16,12,46,-19.90
2019,02,16,12,47,-20.00
2019,02,16,12,48,-20.00
2019,02,16,12,49,-20.10
2019,02,16,12,50,-20.10
2019,02,16,12,51,-20.10
2019,02,16,12,52,-20.00
2019,02,16,12,53,-19.90
2019,02,16,12,54,-19.90
2019,02,16,12,55,-19.80
2019,02,16,12,56,-19.80
2019,02,16,12,57,-19.70
2019,02,16,12,58,-19.70
2019,02,16,12,59,-19.60
2019,02,16,13,00,-19.60
2019,02,16,13,01,-19.50
2019,02,16,13,02,-19.50
2019,02,16,13,03,-19.60
2019,02,16,13,04,-19.60
2019,02,16,13,05,-19.50
2019,02,16,13,06,-19.50
2019,02,16,13,07,-19.40
2019,02,16,13,08,-19.30
2019,02,16,13,09,-19.30
2019,02,16,13,10,-19.10
2019,02,16,13,11,-18.80
2019,02,16,13,12,-18.60
2019,02,16,13,13,-18.60
2019,02,16,13,14,-18.70
2019,02,16,13,15,-18.90
2019,02,16,13,16,-18.90
2019,02,16,13,17,-18.90
2019,02,16,13,18,-18.90
2019,02,16,13,19,-18.80
2019,02,16,13,20,-18.70
2019,02,16,13,21,-18.60
2019,02,16,13,22,-18.40
2019,02,16,13,23,-18.30
2019,02,16,13,24,-18.20
2019,02,16,13,25,-18.10
2019,02,16,13,26,-18.00
2019,02,16,13,27,-17.90
2019,02,16,13,28,-17.80
2019,02,16,13,29,-17.80
2019,02,16,13,30,-18.00
2019,02,16,13,31,-18.30
2019,02,16,13,32,-18.50
2019,02,16,13,33,-18.70
2019,02,16,13,34,-18.90
2019,02,16,13,35,-18.90
2019,02,16,13,36,-18.90
2019,02,16,13,37,-18.90
2019,02,16,13,38,-18.80
2019,02,16,13,39,-18.80
2019,02,16,13,40,-18.70
2019,02,16,13,41,-18.70
2019,02,16,13,42,-18.70
2019,02,16,13,43,-18.70
2019,02,16,13,44,-18.60
2019,02,16,13,45,-18.50
2019,02,16,13,46,-18.50
2019,02,16,13,47,-18.40
2019,02,16,13,48,-18.30
2019,02,16,13,49,-18.20
2019,02,16,13,50,-18.10
2019,02,16,13,51,-18.00
2019,02,16,13,52,-17.90
2019,02,16,13,53,-17.80
2019,02,16,13,54,-17.70
2019,02,16,13,55,-17.60
2019,02,16,13,56,-17.50
2019,02,16,13,57,-17.40
2019,02,16,13,58,-17.40
2019,02,16,13,59,-17.20
2019,02,16,14,00,-17.20
2019,02,16,14,01,-17.20
2019,02,16,14,02,-17.20
2019,02,16,14,03,-16.90
2019,02,16,14,04,-16.90
2019,02,16,14,05,-16.70
2019,02,16,14,06,-16.70
2019,02,16,14,07,-16.60
2019,02,16,14,08,-16.50
2019,02,16,14,09,-16.50
2019,02,16,14,10,-16.40
2019,02,16,14,11,-16.40
2019,02,16,14,12,-16.30
2019,02,16,14,13,-16.30
2019,02,16,14,14,-16.20
2019,02,16,14,15,-16.10
2019,02,16,14,16,-16.00
2019,02,16,14,17,-16.00
2019,02,16,14,18,-15.90
2019,02,16,14,19,-15.90
2019,02,16,14,20,-15.90
2019,02,16,14,21,-15.90
2019,02,16,14,22,-16.10
2019,02,16,14,23,-16.20
2019,02,16,14,24,-16.30
2019,02,16,14,25,-16.50
2019,02,16,14,26,-16.50
2019,02,16,14,27,-16.50
2019,02,16,14,28,-16.40
2019,02,16,14,29,-16.30
2019,02,16,14,30,-16.30
2019,02,16,14,31,-16.30
2019,02,16,14,32,-16.30
2019,02,16,14,33,-16.30
2019,02,16,14,34,-16.30
2019,02,16,14,35,-16.30
2019,02,16,14,36,-16.20
2019,02,16,14,37,-16.20
2019,02,16,14,38,-16.10
2019,02,16,14,39,-16.00
2019,02,16,14,40,-15.90
2019,02,16,14,41,-15.90
2019,02,16,14,42,-15.80
2019,02,16,14,43,-15.70
2019,02,16,14,44,-15.70
2019,02,16,14,45,-15.60
2019,02,16,14,46,-15.50
2019,02,16,14,47,-15.40
2019,02,16,14,48,-15.30
2019,02,16,14,49,-15.20
2019,02,16,14,50,-15.10
2019,02,16,14,51,-15.10
2019,02,16,14,52,-15.00
2019,02,16,14,53,-14.90
2019,02,16,14,54,-14.90
2019,02,16,14,55,-15.00
2019,02,16,14,56,-15.10
2019,02,16,14,57,-15.20
2019,02,16,14,58,-15.30
2019,02,16,14,59,-15.30
2019,02,16,15,00,-15.40
2019,02,16,15,01,-15.50
2019,02,16,15,02,-15.60
2019,02,16,15,03,-15.70
2019,02,16,15,04,-15.90
2019,02,16,15,05,-16.10
2019,02,16,15,06,-16.30
2019,02,16,15,07,-16.30
2019,02,16,15,08,-16.40
2019,02,16,15,09,-16.40
2019,02,16,15,10,-16.30
2019,02,16,15,11,-16.30
2019,02,16,15,12,-16.30
2019,02,16,15,13,-16.30
2019,02,16,15,14,-16.30
2019,02,16,15,15,-16.30
2019,02,16,15,16,-16.30
2019,02,16,15,17,-16.30
2019,02,16,15,18,-16.20
2019,02,16,15,19,-16.10
2019,02,16,15,20,-15.90
2019,02,16,15,21,-15.80
2019,02,16,15,22,-15.70
2019,02,16,15,23,-15.60
2019,02,16,15,24,-15.40
2019,02,16,15,25,-15.40
2019,02,16,15,26,-15.30
2019,02,16,15,27,-15.20
2019,02,16,15,28,-15.10
2019,02,16,15,29,-14.90
2019,02,16,15,30,-14.90
2019,02,16,15,31,-14.80
2019,02,16,15,32,-14.70
2019,02,16,15,33,-14.70
2019,02,16,15,34,-14.80
2019,02,16,15,35,-14.80
2019,02,16,15,36,-14.90
2019,02,16,15,37,-14.90
2019,02,16,15,38,-15.00
2019,02,16,15,39,-15.10
2019,02,16,15,40,-15.10
2019,02,16,15,41,-15.20
2019,02,16,15,42,-15.20
2019,02,16,15,43,-15.20
2019,02,16,15,44,-15.30
2019,02,16,15,45,-15.30
2019,02,16,15,46,-15.30
2019,02,16,15,47,-15.30
2019,02,16,15,48,-15.30
2019,02,16,15,49,-15.30
2019,02,16,15,50,-15.30
2019,02,16,15,51,-15.30
2019,02,16,15,52,-15.30
2019,02,16,15,53,-15.20
2019,02,16,15,54,-15.20
2019,02,16,15,55,-15.20
2019,02,16,15,56,-15.10
2019,02,16,15,57,-15.10
2019,02,16,15,58,-15.10
2019,02,16,15,59,-15.00
2019,02,16,16,00,-14.90
2019,02,16,16,01,-14.90
2019,02,16,16,02,-14.90
2019,02,16,16,03,-14.90
2019,02,16,16,04,-14.90
2019,02,16,16,05,-15.00
2019,02,16,16,06,-15.00
2019,02,16,16,07,-15.10
2019,02,16,16,08,-15.10
2019,02,16,16,09,-15.10
2019,02,16,16,10,-15.20
2019,02,16,16,11,-15.20
2019,02,16,16,12,-15.30
2019,02,16,16,13,-15.40
2019,02,16,16,14,-15.40
2019,02,16,16,15,-15.50
2019,02,16,16,16,-15.50
2019,02,16,16,17,-15.50
2019,02,16,16,18,-15.50
2019,02,16,16,19,-15.50
2019,02,16,16,20,-15.50
2019,02,16,16,21,-15.40
2019,02,16,16,22,-15.40
2019,02,16,16,23,-15.40
2019,02,16,16,24,-15.40
2019,02,16,16,25,-15.40
2019,02,16,16,26,-15.40
2019,02,16,16,27,-15.40
2019,02,16,16,28,-15.50
2019,02,16,16,29,-15.60
2019,02,16,16,30,-15.70
2019,02,16,16,31,-15.90
2019,02,16,16,32,-16.00
2019,02,16,16,33,-16.10
2019,02,16,16,34,-16.20
2019,02,16,16,35,-16.30
2019,02,16,16,36,-16.40
2019,02,16,16,37,-16.50
2019,02,16,16,38,-16.50
2019,02,16,16,39,-16.60
2019,02,16,16,40,-16.60
2019,02,16,16,41,-16.60
2019,02,16,16,42,-16.60
2019,02,16,16,43,-16.60
2019,02,16,16,44,-16.60
2019,02,16,16,45,-16.60
2019,02,16,16,46,-16.50
2019,02,16,16,47,-16.50
2019,02,16,16,48,-16.50
2019,02,16,16,49,-16.50
2019,02,16,16,50,-16.50
2019,02,16,16,51,-16.50
2019,02,16,16,52,-16.50
2019,02,16,16,53,-16.50
2019,02,16,16,54,-16.50
2019,02,16,16,55,-16.50
2019,02,16,16,56,-16.50
2019,02,16,16,57,-16.60
2019,02,16,16,58,-16.60
2019,02,16,16,59,-16.60
2019,02,16,17,00,-16.60
2019,02,16,17,01,-16.60
2019,02,16,17,02,-16.60
2019,02,16,17,03,-16.60
2019,02,16,17,04,-16.70
2019,02,16,17,05,-16.70
2019,02,16,17,06,-16.70
2019,02,16,17,07,-16.80
2019,02,16,17,08,-16.80
2019,02,16,17,09,-16.90
2019,02,16,17,10,-16.90
2019,02,16,17,11,-16.90
2019,02,16,17,12,-16.90
2019,02,16,17,13,-17.00
2019,02,16,17,14,-17.00
2019,02,16,17,15,-17.00
2019,02,16,17,16,-17.00
2019,02,16,17,17,-17.10
2019,02,16,17,18,-17.10
2019,02,16,17,19,-17.10
2019,02,16,17,20,-17.10
2019,02,16,17,21,-17.10
2019,02,16,17,22,-17.10
2019,02,16,17,23,-17.20
2019,02,16,17,24,-17.20
2019,02,16,17,25,-17.20
2019,02,16,17,26,-17.20
2019,02,16,17,27,-17.20
2019,02,16,17,28,-17.20
2019,02,16,17,29,-17.20
2019,02,16,17,30,-17.20
2019,02,16,17,31,-17.20
2019,02,16,17,32,-17.10
2019,02,16,17,33,-17.10
2019,02,16,17,34,-17.10
2019,02,16,17,35,-17.10
2019,02,16,17,36,-17.10
2019,02,16,17,37,-17.00
2019,02,16,17,38,-17.00
2019,02,16,17,39,-17.00
2019,02,16,17,40,-17.00
2019,02,16,17,41,-17.00
2019,02,16,17,42,-17.00
2019,02,16,17,43,-17.00
2019,02,16,17,44,-17.00
2019,02,16,17,45,-17.00
2019,02,16,17,46,-17.00
2019,02,16,17,47,-17.00
2019,02,16,17,48,-17.00
2019,02,16,17,49,-17.00
2019,02,16,17,50,-17.10
2019,02,16,17,51,-17.10
2019,02,16,17,52,-17.10
2019,02,16,17,53,-17.10
2019,02,16,17,54,-17.10
2019,02,16,17,55,-17.10
2019,02,16,17,56,-17.20
2019,02,16,17,57,-17.20
2019,02,16,17,58,-17.20
2019,02,16,17,59,-17.20
2019,02,16,18,00,-17.20
2019,02,16,18,01,-17.30
2019,02,16,18,02,-17.30
2019,02,16,18,03,-17.30
2019,02,16,18,04,-17.30
2019,02,16,18,05,-17.40
2019,02,16,18,06,-17.40
2019,02,16,18,07,-17.40
2019,02,16,18,08,-17.40
2019,02,16,18,09,-17.40
2019,02,16,18,10,-17.40
2019,02,16,18,11,-17.40
2019,02,16,18,12,-17.50
2019,02,16,18,13,-17.50
2019,02,16,18,14,-17.50
2019,02,16,18,15,-17.50
2019,02,16,18,16,-17.50
2019,02,16,18,17,-17.50
2019,02,16,18,18,-17.60
2019,02,16,18,19,-17.50
2019,02,16,18,20,-17.60
2019,02,16,18,21,-17.50
2019,02,16,18,22,-17.60
2019,02,16,18,23,-17.60
2019,02,16,18,24,-17.50
2019,02,16,18,25,-17.50
2019,02,16,18,26,-17.50
2019,02,16,18,27,-17.50
2019,02,16,18,28,-17.50
2019,02,16,18,29,-17.50
2019,02,16,18,30,-17.50
2019,02,16,18,31,-17.50
2019,02,16,18,32,-17.50
2019,02,16,18,33,-17.50
2019,02,16,18,34,-17.50
2019,02,16,18,35,-17.50
2019,02,16,18,36,-17.50
2019,02,16,18,37,-17.50
2019,02,16,18,38,-17.40
2019,02,16,18,39,-17.40
2019,02,16,18,40,-17.40
2019,02,16,18,41,-17.30
2019,02,16,18,42,-17.20
2019,02,16,18,43,-17.20
2019,02,16,18,44,-17.10
2019,02,16,18,45,-17.10
2019,02,16,18,46,-17.10
2019,02,16,18,47,-17.10
2019,02,16,18,48,-17.10
2019,02,16,18,49,-17.00
2019,02,16,18,50,-16.90
2019,02,16,18,51,-16.90
2019,02,16,18,52,-16.80
2019,02,16,18,53,-16.70
2019,02,16,18,54,-16.60
2019,02,16,18,55,-16.40
2019,02,16,18,56,-16.30
2019,02,16,18,57,-16.20
2019,02,16,18,58,-16.20
2019,02,16,18,59,-16.20
2019,02,16,19,00,-16.10
2019,02,16,19,01,-15.80
2019,02,16,19,02,-15.70
2019,02,16,19,03,-15.70
2019,02,16,19,04,-15.60
2019,02,16,19,05,-15.60
2019,02,16,19,06,-15.60
2019,02,16,19,07,-15.60
2019,02,16,19,08,-15.50
2019,02,16,19,09,-15.50
2019,02,16,19,10,-15.50
2019,02,16,19,11,-15.60
2019,02,16,19,12,-15.60
2019,02,16,19,13,-15.60
2019,02,16,19,14,-15.60
2019,02,16,19,15,-15.60
2019,02,16,19,16,-15.60
2019,02,16,19,17,-15.60
2019,02,16,19,18,-15.60
2019,02,16,19,19,-15.60
2019,02,16,19,20,-15.60
2019,02,16,19,21,-15.60
2019,02,16,19,22,-15.60
2019,02,16,19,23,-15.60
2019,02,16,19,24,-15.50
2019,02,16,19,25,-15.50
2019,02,16,19,26,-15.40
2019,02,16,19,27,-15.40
2019,02,16,19,28,-15.40
2019,02,16,19,29,-15.40
2019,02,16,19,30,-15.30
2019,02,16,19,31,-15.40
2019,02,16,19,32,-15.30
2019,02,16,19,33,-15.30
2019,02,16,19,34,-15.30
2019,02,16,19,35,-15.30
2019,02,16,19,36,-15.30
2019,02,16,19,37,-15.30
2019,02,16,19,38,-15.30
2019,02,16,19,39,-15.30
2019,02,16,19,40,-15.30
2019,02,16,19,41,-15.30
2019,02,16,19,42,-15.30
2019,02,16,19,43,-15.40
2019,02,16,19,44,-15.40
2019,02,16,19,45,-15.40
2019,02,16,19,46,-15.40
2019,02,16,19,47,-15.40
2019,02,16,19,48,-15.40
2019,02,16,19,49,-15.40
2019,02,16,19,50,-15.40
2019,02,16,19,51,-15.40
2019,02,16,19,52,-15.40
2019,02,16,19,53,-15.40
2019,02,16,19,54,-15.40
2019,02,16,19,55,-15.40
2019,02,16,19,56,-15.40
2019,02,16,19,57,-15.40
2019,02,16,19,58,-15.40
2019,02,16,19,59,-15.40
2019,02,16,20,00,-15.40
2019,02,16,20,01,-15.40
2019,02,16,20,02,-15.40
2019,02,16,20,03,-15.40
2019,02,16,20,04,-15.40
2019,02,16,20,05,-15.40
2019,02,16,20,06,-15.30
2019,02,16,20,07,-15.30
2019,02,16,20,08,-15.30
2019,02,16,20,09,-15.30
2019,02,16,20,10,-15.20
2019,02,16,20,11,-15.20
2019,02,16,20,12,-15.20
2019,02,16,20,13,-15.20
2019,02,16,20,14,-15.20
2019,02,16,20,15,-15.20
2019,02,16,20,16,-15.20
2019,02,16,20,17,-15.10
2019,02,16,20,18,-15.10
2019,02,16,20,19,-15.10
2019,02,16,20,20,-15.10
2019,02,16,20,21,-15.10
2019,02,16,20,22,-15.00
2019,02,16,20,23,-15.00
2019,02,16,20,24,-14.90
2019,02,16,20,25,-14.90
2019,02,16,20,26,-14.90
2019,02,16,20,27,-14.90
2019,02,16,20,28,-14.90
2019,02,16,20,29,-14.80
2019,02,16,20,30,-14.80
2019,02,16,20,31,-14.80
2019,02,16,20,32,-14.70
2019,02,16,20,33,-14.70
2019,02,16,20,34,-14.70
2019,02,16,20,35,-14.60
2019,02,16,20,36,-14.60
2019,02,16,20,37,-14.50
2019,02,16,20,38,-14.50
2019,02,16,20,39,-14.50
2019,02,16,20,40,-14.50
2019,02,16,20,41,-14.40
2019,02,16,20,42,-14.40
2019,02,16,20,43,-14.40
2019,02,16,20,44,-14.30
2019,02,16,20,45,-14.30
2019,02,16,20,46,-14.20
2019,02,16,20,47,-14.20
2019,02,16,20,48,-14.20
2019,02,16,20,49,-14.20
2019,02,16,20,50,-14.10
2019,02,16,20,51,-14.00
2019,02,16,20,52,-14.00
2019,02,16,20,53,-14.00
2019,02,16,20,54,-13.90
2019,02,16,20,55,-13.90
2019,02,16,20,56,-13.80
2019,02,16,20,57,-13.80
2019,02,16,20,58,-13.80
2019,02,16,20,59,-13.70
2019,02,16,21,00,-13.70
2019,02,16,21,01,-13.60
2019,02,16,21,02,-13.60
2019,02,16,21,03,-13.60
2019,02,16,21,04,-13.60
2019,02,16,21,05,-13.50
2019,02,16,21,06,-13.50
2019,02,16,21,07,-13.50
2019,02,16,21,08,-13.50
2019,02,16,21,09,-13.50
2019,02,16,21,10,-13.50
2019,02,16,21,11,-13.50
2019,02,16,21,12,-13.40
2019,02,16,21,13,-13.40
2019,02,16,21,14,-13.40
2019,02,16,21,15,-13.40
2019,02,16,21,16,-13.40
2019,02,16,21,17,-13.40
2019,02,16,21,18,-13.40
2019,02,16,21,19,-13.40
2019,02,16,21,20,-13.40
2019,02,16,21,21,-13.40
2019,02,16,21,22,-13.30
2019,02,16,21,23,-13.30
2019,02,16,21,24,-13.30
2019,02,16,21,25,-13.30
2019,02,16,21,26,-13.30
2019,02,16,21,27,-13.30
2019,02,16,21,28,-13.30
2019,02,16,21,29,-13.30
2019,02,16,21,30,-13.30
2019,02,16,21,31,-13.30
2019,02,16,21,32,-13.20
2019,02,16,21,33,-13.20
2019,02,16,21,34,-13.20
2019,02,16,21,35,-13.20
2019,02,16,21,36,-13.20
2019,02,16,21,37,-13.20
2019,02,16,21,38,-13.10
2019,02,16,21,39,-13.10
2019,02,16,21,40,-13.10
2019,02,16,21,41,-13.10
2019,02,16,21,42,-13.00
2019,02,16,21,43,-13.00
2019,02,16,21,44,-13.00
2019,02,16,21,45,-13.00
2019,02,16,21,46,-13.00
2019,02,16,21,47,-13.00
2019,02,16,21,48,-13.00
2019,02,16,21,49,-12.90
2019,02,16,21,50,-12.90
2019,02,16,21,51,-12.90
2019,02,16,21,52,-12.90
2019,02,16,21,53,-12.90
2019,02,16,21,54,-12.90
2019,02,16,21,55,-12.80
2019,02,16,21,56,-12.80
2019,02,16,21,57,-12.80
2019,02,16,21,58,-12.80
2019,02,16,21,59,-12.80
2019,02,16,22,00,-12.80
2019,02,16,22,01,-12.80
2019,02,16,22,02,-12.70
2019,02,16,22,03,-12.70
2019,02,16,22,04,-12.70
2019,02,16,22,05,-12.70
2019,02,16,22,06,-12.70
2019,02,16,22,07,-12.70
2019,02,16,22,08,-12.70
2019,02,16,22,09,-12.80
2019,02,16,22,10,-12.80
2019,02,16,22,11,-12.80
2019,02,16,22,12,-12.80
2019,02,16,22,13,-12.90
2019,02,16,22,14,-12.90
2019,02,16,22,15,-12.90
2019,02,16,22,16,-12.90
2019,02,16,22,17,-12.90
2019,02,16,22,18,-13.00
2019,02,16,22,19,-13.00
2019,02,16,22,20,-13.10
2019,02,16,22,21,-13.10
2019,02,16,22,22,-13.20
2019,02,16,22,23,-13.30
2019,02,16,22,24,-13.30
2019,02,16,22,25,-13.40
2019,02,16,22,26,-13.50
2019,02,16,22,27,-13.50
2019,02,16,22,28,-13.50
2019,02,16,22,29,-13.60
2019,02,16,22,30,-13.60
2019,02,16,22,31,-13.60
2019,02,16,22,32,-13.70
2019,02,16,22,33,-13.70
2019,02,16,22,34,-13.70
2019,02,16,22,35,-13.80
2019,02,16,22,36,-13.80
2019,02,16,22,37,-13.80
2019,02,16,22,38,-13.90
2019,02,16,22,39,-13.90
2019,02,16,22,40,-14.00
2019,02,16,22,41,-14.00
2019,02,16,22,42,-14.10
2019,02,16,22,43,-14.20
2019,02,16,22,44,-14.20
2019,02,16,22,45,-14.20
2019,02,16,22,46,-14.30
2019,02,16,22,47,-14.30
2019,02,16,22,48,-14.40
2019,02,16,22,49,-14.40
2019,02,16,22,50,-14.50
2019,02,16,22,51,-14.50
2019,02,16,22,52,-14.50
2019,02,16,22,53,-14.60
2019,02,16,22,54,-14.70
2019,02,16,22,55,-14.70
2019,02,16,22,56,-14.80
2019,02,16,22,57,-14.80
2019,02,16,22,58,-14.90
2019,02,16,22,59,-14.90
2019,02,16,23,00,-14.90
2019,02,16,23,01,-14.90
2019,02,16,23,02,-14.90
2019,02,16,23,03,-14.90
2019,02,16,23,04,-15.00
2019,02,16,23,05,-15.00
2019,02,16,23,06,-15.00
2019,02,16,23,07,-15.00
2019,02,16,23,08,-15.00
2019,02,16,23,09,-15.10
2019,02,16,23,10,-15.10
2019,02,16,23,11,-15.10
2019,02,16,23,12,-15.10
2019,02,16,23,13,-15.20
2019,02,16,23,14,-15.20
2019,02,16,23,15,-15.20
2019,02,16,23,16,-15.20
2019,02,16,23,17,-15.20
2019,02,16,23,18,-15.20
2019,02,16,23,19,-15.20
2019,02,16,23,20,-15.10
2019,02,16,23,21,-15.10
2019,02,16,23,22,-15.10
2019,02,16,23,23,-15.10
2019,02,16,23,24,-15.10
2019,02,16,23,25,-15.20
2019,02,16,23,26,-15.20
2019,02,16,23,27,-15.20
2019,02,16,23,28,-15.20
2019,02,16,23,29,-15.20
2019,02,16,23,30,-15.30
2019,02,16,23,31,-15.30
2019,02,16,23,32,-15.30
2019,02,16,23,33,-15.30
2019,02,16,23,34,-15.30
2019,02,16,23,35,-15.30
2019,02,16,23,36,-15.30
2019,02,16,23,37,-15.40
2019,02,16,23,38,-15.40
2019,02,16,23,39,-15.40
2019,02,16,23,40,-15.40
2019,02,16,23,41,-15.40
2019,02,16,23,42,-15.40
2019,02,16,23,43,-15.30
2019,02,16,23,44,-15.30
2019,02,16,23,45,-15.30
2019,02,16,23,46,-15.30
2019,02,16,23,47,-15.30
2019,02,16,23,48,-15.30
2019,02,16,23,49,-15.30
2019,02,16,23,50,-15.30
2019,02,16,23,51,-15.20
2019,02,16,23,52,-15.20
2019,02,16,23,53,-15.10
2019,02,16,23,54,-15.10
2019,02,16,23,55,-15.10
2019,02,16,23,56,-15.10
2019,02,16,23,57,-15.00
2019,02,16,23,58,-15.00
2019,02,16,23,59,-15.00
